Volver al catálogo

STARLINK-37803

ActivoComunicacionesSSO
NORAD 69319·PAYLOAD·🇺🇸 United States

Lanzado May 30, 2026 desde Vandenberg Space Force Base

Loading…

Próximos Pases (próximas 24 horas)

TLE

ActualizadoSource: CelesTrak SupGP

Época: Sep 15, 2026, 03:24 UTC

1 69319C 26119Z   26258.14215278 -.00048169  00000+0 -14954-2 0  2582
2 69319  97.2823 283.0353 0000866  94.2266  44.2446 15.33461843    17

Sigue STARLINK-37803 en tiempo real con AllMySat

Download on the App Store